Location: Balmoral
(33.0667°S, 151.5833°E)
Time: 01:30:36
(UTC+00:00)

Cosmos 1777 Rocket - Pass Details

Date: 18 September 2020
Orbit: 759 x 775 km, 74.0° (Epoch: 21 October)

Event Time Altitude Azimuth Distance (km) Brightness Sun altitude
Rises 19:04:45 0° 339° (NNW) 3,205 7.0 -9.8°
Reaches altitude 10° 19:07:06 10° 336° (NNW) 2,288 6.2 -9.3°
Maximum altitude 19:12:17 70° 253° (WSW) 817 4.0 -8.2°
Drops below altitude 10° 19:17:32 10° 168° (SSE) 2,323 6.7 -7.1°
Sets 19:19:57 0° 166° (SSE) 3,258 7.5 -6.6°
